Location: Eenumerhoogte
(53.3420°N, 6.7843°E)
Time: 20:47:15
(UTC+00:00)

Cosmos 1536 - Pass Details

Date: 15 May 2026
Orbit: 482 x 500 km, 82.5° (Epoch: 8 June)

Event Time Altitude Azimuth Distance (km) Brightness Sun altitude
Rises 21:29:32 0° 353° (N) 2,571 7.6 -13.2°
Reaches altitude 10° 21:31:42 10° 359° (N) 1,688 6.3 -13.3°
Maximum altitude 21:35:17 46° 74° (ENE) 669 3.1 -13.6°
Enters shadow 21:37:12 24° 137° (SE) 1,067 3.7 -13.7°
